Météo par heure à Juan Rodríguez Clara

Ce jour, 20 Juin, Dimanche

Heure Température Précipitation Vent Pression Humidité
00:00 +27°C° 0 mm 3 m/s 749 mmHg 86%
01:00 +26°C° 0 mm 2 m/s 749 mmHg 88%
02:00 +26°C° 0 mm 2 m/s 748 mmHg 90%
03:00 +26°C° 0 mm 2 m/s 748 mmHg 92%
04:00 +26°C° 0 mm 2 m/s 748 mmHg 92%
05:00 +26°C° 0 mm 1 m/s 748 mmHg 93%
06:00 +25°C° 0 mm 1 m/s 748 mmHg 94%
07:00 +27°C° 0 mm 1 m/s 749 mmHg 90%
08:00 +28°C° 0 mm 2 m/s 749 mmHg 85%
09:00 +29°C° 0 mm 2 m/s 749 mmHg 81%
10:00 +30°C° 0 mm 2 m/s 749 mmHg 76%
11:00 +31°C° 0 mm 2 m/s 749 mmHg 71%
12:00 +34°C° 0 mm 3 m/s 748 mmHg 65%
13:00 +34°C° 0 mm 3 m/s 748 mmHg 64%
14:00 +34°C° 0 mm 3 m/s 747 mmHg 63%
15:00 +35°C° 0 mm 4 m/s 746 mmHg 62%
16:00 +34°C° 0 mm 3 m/s 746 mmHg 67%
17:00 +33°C° 0 mm 3 m/s 746 mmHg 71%
18:00 +31°C° 0 mm 3 m/s 746 mmHg 76%
19:00 +30°C° 0 mm 3 m/s 746 mmHg 76%
20:00 +29°C° 0 mm 4 m/s 747 mmHg 75%
21:00 +28°C° 0 mm 4 m/s 747 mmHg 75%
22:00 +28°C° 0 mm 4 m/s 747 mmHg 76%
23:00 +28°C° 0 mm 4 m/s 747 mmHg 77%

Demain, 21 Juin, Lundi

Heure Température Précipitation Vent Pression Humidité
00:00 +27°C° 0 mm 4 m/s 748 mmHg 78%
01:00 +27°C° 0 mm 4 m/s 747 mmHg 81%
02:00 +27°C° 0 mm 4 m/s 747 mmHg 84%
03:00 +27°C° 0 mm 4 m/s 746 mmHg 87%
04:00 +26°C° 0 mm 3 m/s 746 mmHg 88%
05:00 +26°C° 0 mm 3 m/s 746 mmHg 89%
06:00 +26°C° 0 mm 3 m/s 746 mmHg 90%
07:00 +27°C° 0 mm 3 m/s 747 mmHg 86%
08:00 +29°C° 0 mm 4 m/s 747 mmHg 81%
09:00 +30°C° 0 mm 5 m/s 748 mmHg 76%
10:00 +32°C° 0 mm 5 m/s 747 mmHg 72%
11:00 +33°C° 0 mm 5 m/s 747 mmHg 67%
12:00 +34°C° 0 mm 5 m/s 746 mmHg 63%
13:00 +35°C° 0 mm 6 m/s 746 mmHg 63%
14:00 +35°C° 0 mm 6 m/s 745 mmHg 63%
15:00 +35°C° 0 mm 7 m/s 745 mmHg 64%
16:00 +34°C° 0 mm 7 m/s 744 mmHg 68%
17:00 +33°C° 0 mm 6 m/s 744 mmHg 72%
18:00 +30°C° 0 mm 6 m/s 744 mmHg 76%
19:00 +30°C° 0 mm 6 m/s 745 mmHg 76%
20:00 +29°C° 0 mm 7 m/s 745 mmHg 76%
21:00 +28°C° 0 mm 7 m/s 746 mmHg 76%
22:00 +28°C° 0 mm 6 m/s 746 mmHg 77%
23:00 +28°C° 0 mm 6 m/s 746 mmHg 78%

Après-demain, 22 Juin, Mardi

Heure Température Précipitation Vent Pression Humidité
00:00 +28°C° 0 mm 6 m/s 746 mmHg 79%
01:00 +27°C° 0.1 mm 5 m/s 746 mmHg 81%
02:00 +27°C° 0.1 mm 5 m/s 745 mmHg 83%
03:00 +27°C° 0.1 mm 4 m/s 745 mmHg 85%
04:00 +27°C° 0 mm 4 m/s 745 mmHg 85%
05:00 +26°C° 0 mm 4 m/s 745 mmHg 86%
06:00 +26°C° 0 mm 3 m/s 745 mmHg 87%
07:00 +28°C° 0 mm 4 m/s 746 mmHg 83%
08:00 +29°C° 0 mm 4 m/s 746 mmHg 79%
09:00 +30°C° 0 mm 4 m/s 747 mmHg 75%
10:00 +32°C° 0 mm 4 m/s 747 mmHg 71%
11:00 +33°C° 0 mm 4 m/s 746 mmHg 67%
12:00 +35°C° 0 mm 4 m/s 746 mmHg 63%
13:00 +35°C° 0 mm 4 m/s 746 mmHg 62%
14:00 +35°C° 0 mm 4 m/s 745 mmHg 60%
15:00 +36°C° 0 mm 4 m/s 745 mmHg 58%
16:00 +35°C° 0 mm 4 m/s 745 mmHg 64%
17:00 +33°C° 0 mm 4 m/s 745 mmHg 70%
18:00 +32°C° 0 mm 4 m/s 745 mmHg 76%
19:00 +30°C° 0.1 mm 3 m/s 746 mmHg 76%
20:00 +29°C° 0.1 mm 3 m/s 746 mmHg 76%
21:00 +28°C° 0.1 mm 3 m/s 747 mmHg 76%
22:00 +28°C° 0.1 mm 3 m/s 747 mmHg 79%
23:00 +27°C° 0.1 mm 3 m/s 747 mmHg 82%

23 Juin, Mercredi

Heure Température Précipitation Vent Pression Humidité
00:00 +26°C° 0.1 mm 2 m/s 748 mmHg 85%
01:00 +26°C° 0.6 mm 2 m/s 748 mmHg 87%
02:00 +26°C° 0.6 mm 2 m/s 747 mmHg 90%
03:00 +26°C° 0.6 mm 1 m/s 747 mmHg 92%
04:00 +26°C° 0.1 mm 1 m/s 747 mmHg 92%
05:00 +26°C° 0.1 mm 1 m/s 748 mmHg 93%
06:00 +26°C° 0.1 mm 1 m/s 748 mmHg 93%
07:00 +27°C° 0 mm 1 m/s 748 mmHg 90%
08:00 +28°C° 0 mm 1 m/s 749 mmHg 86%
09:00 +29°C° 0 mm 1 m/s 749 mmHg 82%
10:00 +30°C° 0 mm 1 m/s 749 mmHg 77%
11:00 +31°C° 0 mm 1 m/s 749 mmHg 72%
12:00 +32°C° 0 mm 1 m/s 749 mmHg 67%
13:00 +33°C° 0.1 mm 1 m/s 748 mmHg 66%
14:00 +34°C° 0.1 mm 2 m/s 748 mmHg 64%
15:00 +34°C° 0.1 mm 2 m/s 747 mmHg 63%
16:00 +34°C° 0.9 mm 2 m/s 747 mmHg 68%
17:00 +32°C° 0.9 mm 2 m/s 748 mmHg 73%
18:00 +31°C° 0.9 mm 1 m/s 748 mmHg 79%
19:00 +29°C° 0.9 mm 1 m/s 748 mmHg 82%
20:00 +28°C° 0.9 mm 1 m/s 748 mmHg 86%
21:00 +27°C° 0.9 mm 1 m/s 749 mmHg 90%
22:00 +27°C° 1.1 mm 1 m/s 749 mmHg 91%
23:00 +26°C° 1.1 mm 1 m/s 749 mmHg 92%

24 Juin, Jeudi

Heure Température Précipitation Vent Pression Humidité
00:00 +26°C° 1.1 mm 1 m/s 749 mmHg 94%
01:00 +26°C° 1.3 mm 1 m/s 749 mmHg 94%
02:00 +26°C° 1.3 mm 1 m/s 749 mmHg 94%
03:00 +26°C° 1.3 mm 1 m/s 749 mmHg 94%
04:00 +25°C° 1.3 mm 1 m/s 749 mmHg 95%
05:00 +25°C° 1.3 mm 1 m/s 749 mmHg 95%
06:00 +25°C° 1.3 mm 1 m/s 749 mmHg 96%
07:00 +26°C° 1 mm 1 m/s 749 mmHg 94%
08:00 +26°C° 1 mm 1 m/s 750 mmHg 92%
09:00 +27°C° 1 mm 2 m/s 750 mmHg 90%
10:00 +27°C° 0.6 mm 1 m/s 750 mmHg 86%
11:00 +28°C° 0.6 mm 1 m/s 750 mmHg 83%
12:00 +29°C° 0.6 mm 1 m/s 750 mmHg 80%
13:00 +28°C° 1 mm 1 m/s 749 mmHg 84%
14:00 +27°C° 1 mm 2 m/s 749 mmHg 87%
15:00 +27°C° 1 mm 2 m/s 748 mmHg 91%
16:00 +27°C° 0.4 mm 2 m/s 749 mmHg 90%
17:00 +27°C° 0.4 mm 2 m/s 749 mmHg 89%
18:00 +27°C° 0.4 mm 1 m/s 749 mmHg 89%
19:00 +26°C° 0.9 mm 1 m/s 749 mmHg 91%
20:00 +25°C° 0.9 mm 1 m/s 749 mmHg 93%
21:00 +25°C° 0.9 mm 1 m/s 750 mmHg 95%
22:00 +24°C° 1.4 mm 1 m/s 750 mmHg 95%
23:00 +24°C° 1.4 mm 1 m/s 750 mmHg 95%

25 Juin, Vendredi

Heure Température Précipitation Vent Pression Humidité
00:00 +24°C° 1.4 mm 1 m/s 750 mmHg 96%
01:00 +24°C° 0.5 mm 1 m/s 750 mmHg 96%
02:00 +24°C° 0.5 mm 1 m/s 749 mmHg 96%
03:00 +24°C° 0.5 mm 1 m/s 748 mmHg 96%
04:00 +23°C° 0.5 mm 1 m/s 748 mmHg 97%
05:00 +23°C° 0.5 mm 1 m/s 749 mmHg 97%
06:00 +23°C° 0.5 mm 1 m/s 749 mmHg 97%
07:00 +24°C° 0.1 mm 2 m/s 749 mmHg 94%
08:00 +25°C° 0.1 mm 2 m/s 749 mmHg 91%
09:00 +26°C° 0.1 mm 2 m/s 750 mmHg 88%
10:00 +26°C° 0.1 mm 2 m/s 750 mmHg 87%
11:00 +27°C° 0.1 mm 2 m/s 750 mmHg 85%
12:00 +27°C° 0.1 mm 3 m/s 750 mmHg 84%
13:00 +27°C° 0 mm 2 m/s 749 mmHg 82%
14:00 +27°C° 0 mm 2 m/s 749 mmHg 81%
15:00 +27°C° 0 mm 2 m/s 748 mmHg 80%
16:00 +26°C° 0.1 mm 2 m/s 748 mmHg 83%
17:00 +26°C° 0.1 mm 2 m/s 748 mmHg 86%
18:00 +25°C° 0.1 mm 2 m/s 748 mmHg 89%
19:00 +25°C° 0.2 mm 2 m/s 749 mmHg 90%
20:00 +24°C° 0.2 mm 2 m/s 749 mmHg 91%
21:00 +24°C° 0.2 mm 2 m/s 750 mmHg 92%
22:00 +24°C° 0 mm 2 m/s 750 mmHg 91%
23:00 +24°C° 0 mm 1 m/s 749 mmHg 91%
Voir plus

Nous avons besoin de votre consentement

Meteoprog et ses fournisseurs de services peuvent stocker et accéder à des données personnelles telles que des cookies, des identifiants d'appareils ou d'autres technologies similaires sur votre appareil et traiter ces données pour personnaliser le contenu et les publicités, ainsi que pour fournir des fonctionnalités de médias sociaux et analyser le trafic.

  • Stocker et/ou accéder à des informations sur votre appareil

    Des cookies, des identifiants d'appareils ou d'autres informations peuvent être stockés ou accessibles sur votre appareil aux fins indiquées ci-dessus.

  • Annonces et contenus personnalisés, mesure des annonces et des contenus, connaissance de l'audience et développement de produits

    Les annonces et le contenu peuvent être personnalisés en fonction d'un profil. D'autres données peuvent être ajoutées pour mieux personnaliser les annonces et le contenu. Les performances des publicités et du contenu peuvent être mesurées. Il est possible d'obtenir des informations sur le public qui a vu les publicités et le contenu. Ces données peuvent être utilisées pour développer ou améliorer l'expérience de l'utilisateur, les systèmes et les logiciels.

En cliquant sur "J'accepte", vous autorisez l'utilisation de cookies, des identifiants d'appareils, des balises web ou d'autres technologies similaires. Vos paramètres peuvent être modifiés dans le navigateur de votre appareil.

Dans certains cas, des intérêts légitimes peuvent être invoqués plutôt qu'un consentement. Vous pouvez en savoir plus à ce sujet dans notre Politique de confidentialité et de cookies.